SCOUT X-4 R/B, 907

Orbit data source: Space-Track

SCOUT X-4 R/B, 907 is space debris in LEO originally from a launch on Sat, 10 Oct 1964 UTC launched from the Air Force Western Test Range (AFWTR). Debris objects in space refer to the collection of defunct objects orbiting the Earth. Examples of debris include non-operational satellites, rocket bodies, and fragments generated from explosions, collisions, or faulty payload assembly.

Loading next visibility...
Identifier
907, 1964-064B
Orbit
LEO
Country
Flag of USUS
Related business
Manufacturer
ABL
Mission
Spacecraft
Bus & Motor
ALTAIR, Unknown motor
Mass
33 kg wet, 33 kg dry
Launch date (UTC)
1964-10-10 (61 years ago)
Launch vehicle
Unknown
Launch site
Air Force Western Test Range (AFWTR)
Object type
Payload
Rocket body
Debris
Shape & HBR
Cyl, 0.8 m
Radar Cross Section
0.687 m², Medium (>0.1 m² and < 1m²)

Expand to show TLE details & history
Last TLE update: 4 hours ago

TLE from 4 hours ago
0 SCOUT X-4 R/B
1 00907U 64064B   25242.95183714  .00000170  00000-0  14785-3 0  9995
2 00907  79.6915 125.8238 0120994 325.6698  33.6673 13.80854697 62588
Epoch: 2025-08-30T22:50Z
TLE epoch observation values (Epoch: 2025-08-30T22:50:38.728Z)
Latitude
0.00001°
Longitude
163.78367°
Altitude
890.082 km
Speed
7.444 km/s
True Right ascension
08h 23m 17s
True Declination
0° 00' 00"
Sunlit
Object was in daylight at epoch
Visualization orbit readout
Latitude
Unknown
Longitude
Unknown
Altitude
Unknown
Speed
Unknown
Apparent Right ascension
Unknown
Apparent Declination
Unknown
Sunlit
N/A
Visualization observer readout
Local Sidereal Time
18:55:15
Azimuth
Unknown
Elevation
Unknown
Doppler factor
Unknown
Orbital elements
Apogee altitude
1,046.914 km
Perigee altitude
869.385 km
Semi-major axis
7,336.286 km
Eccentricity
0.0121
Inclination
79.6915°
RAAN
125.8238°
Arg. of periapsis
325.6698°
True anomaly
34.4457°
Mean anomaly
33.6673°
Eccentric anomaly
34.05551°
Mean motion
3.45405 °/min
Orbital period
104.23 mins
BSTAR
0.00014785
Loading maneuver chart data...
Computing Atmospheric mass density...
Loading historical data...
Loading historical data...
Loading historical data...
Loading historical data...
Loading historical data...
Loading historical data...
Loading historical data...
Other satellites on launch #64 in the year 1964 (1964-10-10 UTC)

Documentation

Showing up to 5 results
|